TimeEST,TemperatureF,Dew PointF,Humidity,Sea Level PressureIn,VisibilityMPH,Wind Direction,Wind SpeedMPH,Gust SpeedMPH,PrecipitationIn,Events,Conditions,WindDirDegrees,DateUTC
12:48 AM,50.0,39.2,66,30.14,10.0,WNW,18.4,26.5,N/A,,Scattered Clouds,300,2013-01-18 05:48:00
12:53 AM,50.0,39.0,66,30.16,10.0,NW,16.1,24.2,N/A,,Partly Cloudy,310,2013-01-18 05:53:00
1:53 AM,48.0,36.0,63,30.18,10.0,NNW,10.4,24.2,N/A,,Clear,330,2013-01-18 06:53:00
2:53 AM,45.0,34.0,65,30.21,10.0,NNW,8.1,-,N/A,,Clear,330,2013-01-18 07:53:00
3:53 AM,43.0,33.1,68,30.22,10.0,NNW,9.2,19.6,N/A,,Clear,340,2013-01-18 08:53:00
4:53 AM,42.1,32.0,67,30.23,10.0,NNW,8.1,-,N/A,,Clear,340,2013-01-18 09:53:00
5:46 AM,42.8,33.8,70,30.23,10.0,North,9.2,-,N/A,,Mostly Cloudy,350,2013-01-18 10:46:00
5:53 AM,43.0,33.1,68,30.25,10.0,NNW,8.1,-,N/A,,Mostly Cloudy,340,2013-01-18 10:53:00
6:53 AM,44.1,34.0,68,30.27,10.0,NNW,9.2,-,N/A,,Overcast,340,2013-01-18 11:53:00
7:53 AM,45.0,35.1,68,30.27,10.0,NNW,9.2,-,N/A,,Overcast,340,2013-01-18 12:53:00
8:51 AM,46.4,37.4,71,30.28,10.0,NW,8.1,-,N/A,,Overcast,320,2013-01-18 13:51:00
8:53 AM,46.9,37.0,68,30.30,10.0,NNW,9.2,-,N/A,,Overcast,340,2013-01-18 13:53:00
9:53 AM,48.9,39.0,69,30.32,10.0,NW,5.8,-,N/A,,Overcast,320,2013-01-18 14:53:00
10:53 AM,53.1,42.1,66,30.31,10.0,NNW,9.2,-,N/A,,Overcast,330,2013-01-18 15:53:00
11:40 AM,55.4,46.4,72,30.28,10.0,NNW,6.9,-,N/A,,Overcast,340,2013-01-18 16:40:00
11:53 AM,57.9,46.9,67,30.29,10.0,North,5.8,-,N/A,,Overcast,360,2013-01-18 16:53:00
12:41 PM,60.8,55.4,82,30.25,1.5,NNE,11.5,17.3,0.00,Rain,Light Rain,20,2013-01-18 17:41:00
12:51 PM,60.8,57.2,88,30.25,3.0,NNE,13.8,19.6,0.01,Rain,Light Rain,20,2013-01-18 17:51:00
12:53 PM,60.1,57.0,90,30.27,2.0,NNE,15.0,19.6,0.01,Rain,Light Rain,20,2013-01-18 17:53:00
1:06 PM,60.8,57.2,88,30.24,1.0,NNE,11.5,-,0.03,Rain,Rain,30,2013-01-18 18:06:00
1:12 PM,60.8,57.2,88,30.24,2.5,NNE,12.7,-,0.03,Rain,Light Rain,30,2013-01-18 18:12:00
1:16 PM,62.6,57.2,82,30.24,2.5,NNE,12.7,20.7,0.04,Rain,Light Rain,30,2013-01-18 18:16:00
1:53 PM,62.1,57.9,86,30.25,7.0,NE,9.2,-,0.04,Rain,Light Rain,40,2013-01-18 18:53:00
2:08 PM,64.4,57.2,77,30.23,10.0,NE,13.8,19.6,0.00,,Overcast,40,2013-01-18 19:08:00
2:53 PM,66.0,54.0,65,30.25,10.0,NE,10.4,20.7,0.00,,Overcast,40,2013-01-18 19:53:00
3:53 PM,64.9,53.1,65,30.26,10.0,NNE,16.1,25.3,N/A,,Overcast,30,2013-01-18 20:53:00
4:53 PM,64.9,51.1,61,30.27,10.0,NE,11.5,24.2,N/A,,Overcast,40,2013-01-18 21:53:00
5:53 PM,64.0,52.0,65,30.29,10.0,NNE,13.8,23.0,N/A,,Overcast,30,2013-01-18 22:53:00
6:53 PM,63.0,52.0,67,30.30,10.0,NNE,11.5,-,N/A,,Overcast,20,2013-01-18 23:53:00
7:53 PM,63.0,52.0,67,30.31,10.0,NNE,8.1,-,N/A,,Overcast,30,2013-01-19 00:53:00
8:53 PM,63.0,53.1,70,30.31,10.0,NNE,9.2,-,0.00,,Mostly Cloudy,20,2013-01-19 01:53:00
9:53 PM,63.0,54.0,72,30.31,10.0,NNE,6.9,-,0.01,,Overcast,30,2013-01-19 02:53:00
10:53 PM,63.0,54.0,72,30.30,10.0,NNE,4.6,-,N/A,,Overcast,20,2013-01-19 03:53:00
11:53 PM,59.0,52.0,78,30.29,10.0,NNW,4.6,-,N/A,,Overcast,330,2013-01-19 04:53:00